DW4070 Weather Reports


time (UTC)temp
C
wind
direction
speed
KPH
gust
KPH
rain 1hr
cm
rain 24hr
cm
rain mn
cm
humidity
%
barometer
mb
20260507063034 11 121 0.0 0.0 0.05 0.25 0.05 90 1009.8
20260507061530 11 196 0.0 0.0 0.03 0.23 0.03 90 1010.3
20260507060030 11 183 0.0 0.0 0.00 0.20 0.00 89 1010.0
20260507054524 12 67 0.0 0.0 0.00 0.20 0.00 89 1009.5
20260507053022 12 67 0.0 0.0 0.00 0.20 0.00 88 1009.7
20260507051528 12 68 0.0 1.6 0.00 0.20 0.00 89 1009.8
20260507050020 12 51 0.0 0.0 0.00 0.20 0.00 90 1009.6
20260507044515 13 38 0.0 1.6 0.00 0.20 0.00 91 1009.8
20260507043014 13 50 0.0 0.0 0.00 0.20 0.00 92 1009.8
20260507041512 13 43 0.0 1.6 0.00 0.20 0.00 92 1009.8
20260507040009 13 127 0.0 0.0 0.00 0.20 0.20 93 1009.6
20260507034519 13 149 0.0 0.0 0.00 0.20 0.20 94 1009.2
20260507033015 13 149 0.0 0.0 0.00 0.20 0.20 94 1009.2
20260507031507 14 149 0.0 0.0 0.00 0.20 0.20 94 1009.3
20260507030007 14 149 0.0 0.0 0.00 0.20 0.20 94 1009.7
20260507024509 14 149 0.0 0.0 0.03 0.20 0.20 95 1009.6
20260507023013 14 149 0.0 0.0 0.05 0.20 0.20 95 1009.6
20260507021505 14 149 0.0 0.0 0.05 0.20 0.20 95 1009.7
20260507020006 14 262 0.0 0.0 0.05 0.20 0.20 95 1009.7
20260507014508 14 254 0.0 0.0 0.03 0.18 0.18 94 1009.2
20260507013003 14 254 0.0 0.0 0.00 0.15 0.15 94 1009.2
20260507011505 14 254 0.0 0.0 0.00 0.15 0.15 94 1009.2
20260507010003 14 254 0.0 0.0 0.00 0.15 0.15 94 1009.1
20260507004502 14 254 0.0 0.0 0.00 0.15 0.15 94 1009.0
20260507003002 15 254 0.0 0.0 0.00 0.15 0.15 94 1008.9
20260507001500 15 254 0.0 0.0 0.00 0.15 0.15 94 1008.8
20260506234559 15 231 0.0 0.0 0.00 0.15 0.15 94 1008.6
20260506233100 15 221 0.0 0.0 0.00 0.15 0.15 94 1008.8
20260506231602 15 221 0.0 0.0 0.00 0.15 0.15 94 1008.9
20260506230059 15 221 0.0 0.0 0.00 0.15 0.15 94 1008.6
20260506224556 15 221 0.0 1.6 0.00 0.15 0.15 94 1008.6
20260506223058 15 215 0.0 3.2 0.00 0.15 0.15 93 1008.4
20260506221557 15 219 0.0 4.8 0.00 0.15 0.15 93 1008.4
20260506220056 15 184 0.0 4.8 0.00 0.15 0.15 93 1008.2
20260506214603 15 267 0.0 4.8 0.00 0.15 0.15 93 1008.1
20260506213055 15 267 0.0 4.8 0.00 0.15 0.15 93 1008.1
20260506211600 15 246 0.0 3.2 0.00 0.15 0.15 93 1008.1
20260506210055 15 204 0.0 4.8 0.00 0.15 0.15 93 1007.7
20260506204553 15 263 0.0 3.2 0.03 0.15 0.15 92 1007.9
20260506203050 15 206 0.0 6.4 0.03 0.15 0.15 92 1008.0
20260506201549 15 189 0.0 1.6 0.03 0.15 0.15 91 1008.1
20260506200050 15 59 0.0 6.4 0.03 0.15 0.15 91 1008.3
20260506194546 15 263 0.0 6.4 0.00 0.13 0.13 90 1008.5
20260506193044 15 213 0.0 4.8 0.00 0.13 0.13 90 1008.8
20260506191551 15 197 1.6 8.0 0.00 0.13 0.13 89 1008.7
20260506190043 15 262 0.0 4.8 0.03 0.13 0.13 90 1008.7
20260506184541 15 240 0.0 6.4 0.05 0.13 0.13 89 1008.9
20260506183040 15 189 0.0 9.7 0.05 0.13 0.13 89 1009.1
20260506181544 15 281 3.2 6.4 0.08 0.13 0.13 89 1009.4
20260506180046 15 281 0.0 3.2 0.08 0.10 0.10 89 1009.6
20260506174537 15 281 0.0 3.2 0.08 0.08 0.08 89 1009.4
20260506173041 15 221 0.0 4.8 0.08 0.08 0.08 88 1009.4
20260506171535 16 243 0.0 4.8 0.05 0.05 0.05 86 1009.6
20260506170032 16 263 0.0 3.2 0.03 0.03 0.03 85 1009.8
20260506164530 16 259 0.0 6.4 0.00 0.00 0.00 81 1010.2
20260506163028 17 263 0.0 8.0 0.00 0.00 0.00 77 1010.7
20260506161533 17 265 1.6 8.0 0.00 0.00 0.00 75 1010.5
20260506160028 18 235 0.0 8.0 0.00 0.00 0.00 75 1010.6
20260506154526 18 183 1.6 14.5 0.00 0.00 0.00 72 1010.6
20260506153024 18 275 0.0 12.9 0.00 0.00 0.00 73 1010.8
20260506151524 18 275 0.0 12.9 0.00 0.00 0.00 71 1010.7
20260506150023 18 261 1.6 8.0 0.00 0.00 0.00 73 1010.8
20260506144522 18 263 1.6 6.4 0.00 0.00 0.00 72 1010.6
20260506143026 18 203 1.6 9.7 0.00 0.00 0.00 73 1010.7
20260506141523 18 268 1.6 11.3 0.00 0.00 0.00 73 1010.9
20260506140020 18 281 1.6 11.3 0.00 0.00 0.00 74 1011.0
20260506134515 17 272 3.2 17.7 0.00 0.00 0.00 76 1011.0
20260506133011 17 281 1.6 9.7 0.00 0.00 0.00 78 1011.1
20260506131508 16 268 0.0 4.8 0.00 0.00 0.00 81 1010.8
20260506130006 16 150 0.0 9.7 0.00 0.00 0.00 81 1010.8
20260506124505 16 264 1.6 8.0 0.00 0.00 0.00 81 1010.8
20260506123002 16 210 0.0 3.2 0.00 0.00 0.00 82 1011.0
20260506121501 15 266 1.6 8.0 0.00 0.00 0.00 84 1011.2
20260506120111 14 167 3.2 8.0 0.00 0.00 0.00 88 1011.5
20260506114559 13 163 0.0 4.8 0.00 0.00 0.00 93 1011.5
20260506113100 12 173 0.0 3.2 0.00 0.00 0.00 95 1011.3
20260506111559 11 263 0.0 0.0 0.00 0.00 0.00 94 1011.3
20260506110057 11 263 0.0 0.0 0.00 0.00 0.00 94 1011.6
20260506104559 11 263 0.0 0.0 0.00 0.00 0.00 93 1011.4
20260506103055 10 263 0.0 0.0 0.00 0.00 0.00 93 1011.4
20260506101553 10 263 0.0 0.0 0.00 0.00 0.00 93 1011.3
20260506094605 11 263 0.0 0.0 0.00 0.00 0.00 92 1011.1
20260506093048 11 263 0.0 0.0 0.00 0.00 0.00 92 1011.3
20260506091547 11 263 0.0 0.0 0.00 0.00 0.00 92 1011.2
20260506090045 11 263 0.0 0.0 0.00 0.00 0.00 92 1011.4
20260506084546 11 263 0.0 0.0 0.00 0.00 0.00 91 1011.5
20260506083043 11 263 0.0 0.0 0.00 0.00 0.00 91 1011.5
20260506081540 11 263 0.0 0.0 0.00 0.00 0.00 91 1011.5
20260506073035 12 263 0.0 0.0 0.00 0.00 0.00 90 1011.6
20260506071532 12 263 0.0 0.0 0.00 0.00 0.00 89 1011.8